Time,TemperatureF,DewpointF,PressureIn,WindDirection,WindDirectionDegrees,WindSpeedMPH,WindSpeedGustMPH,Humidity,HourlyPrecipIn,Conditions,Clouds,dailyrainin,SoftwareType,DateUTC
2013-10-19 00:00:00,48.9,42.0,29.85,SW,225,3.7,-999.0,77,-99.99,,,0.00,Acu-Link.com,2013-10-19 04:00:00,
2013-10-19 00:16:00,50.0,42.4,29.84,SW,225,4.2,-999.0,75,-99.99,,,0.00,Acu-Link.com,2013-10-19 04:16:00,
2013-10-19 00:31:00,50.9,42.2,29.84,West,270,4.7,-999.0,72,-99.99,,,0.00,Acu-Link.com,2013-10-19 04:31:00,
2013-10-19 00:47:00,51.4,42.7,29.84,SW,225,3.2,-999.0,72,-99.99,,,0.00,Acu-Link.com,2013-10-19 04:47:00,
2013-10-19 01:02:00,52.0,42.9,29.84,SW,225,4.2,-999.0,71,-99.99,,,0.00,Acu-Link.com,2013-10-19 05:02:00,
2013-10-19 01:17:00,52.3,42.4,29.83,WSW,247,3.7,-999.0,69,-99.99,,,0.00,Acu-Link.com,2013-10-19 05:17:00,
2013-10-19 01:32:00,52.5,42.6,29.84,SW,225,6.3,-999.0,69,-99.99,,,0.00,Acu-Link.com,2013-10-19 05:32:00,
2013-10-19 01:47:00,52.9,42.6,29.83,WSW,247,2.7,-999.0,68,-99.99,,,0.00,Acu-Link.com,2013-10-19 05:47:00,
2013-10-19 02:03:00,52.9,43.0,29.84,SW,225,2.2,-999.0,69,-99.99,,,0.00,Acu-Link.com,2013-10-19 06:03:00,
2013-10-19 02:18:00,52.7,42.8,29.83,SSW,202,3.2,-999.0,69,-99.99,,,0.00,Acu-Link.com,2013-10-19 06:18:00,
2013-10-19 02:33:00,52.2,42.7,29.83,SSW,202,3.7,-999.0,70,-99.99,,,0.00,Acu-Link.com,2013-10-19 06:33:00,
2013-10-19 02:48:00,50.9,42.6,29.83,WSW,247,2.2,-999.0,73,-99.99,,,0.00,Acu-Link.com,2013-10-19 06:48:00,
2013-10-19 03:08:00,50.4,42.8,29.83,WSW,247,2.7,-999.0,75,-99.99,,,0.00,Acu-Link.com,2013-10-19 07:08:00,
2013-10-19 03:23:00,51.1,42.8,29.82,WSW,247,5.8,-999.0,73,-99.99,,,0.00,Acu-Link.com,2013-10-19 07:23:00,
2013-10-19 03:38:00,52.2,43.1,29.82,WSW,247,3.7,-999.0,71,-99.99,,,0.00,Acu-Link.com,2013-10-19 07:38:00,
2013-10-19 03:54:00,52.2,43.1,29.82,WSW,247,6.3,-999.0,71,-99.99,,,0.00,Acu-Link.com,2013-10-19 07:54:00,
2013-10-19 04:09:00,52.0,43.6,29.82,WSW,247,2.7,-999.0,73,-99.99,,,0.00,Acu-Link.com,2013-10-19 08:09:00,
2013-10-19 04:24:00,52.0,43.6,29.82,WSW,247,4.2,-999.0,73,-99.99,,,0.00,Acu-Link.com,2013-10-19 08:24:00,
2013-10-19 04:40:00,51.8,43.8,29.81,West,270,3.2,-999.0,74,-99.99,,,0.00,Acu-Link.com,2013-10-19 08:40:00,
2013-10-19 04:55:00,51.4,43.4,29.81,SW,225,3.2,-999.0,74,-99.99,,,0.00,Acu-Link.com,2013-10-19 08:55:00,
2013-10-19 05:10:00,51.3,43.6,29.81,SW,225,2.7,-999.0,75,-99.99,,,0.00,Acu-Link.com,2013-10-19 09:10:00,
2013-10-19 05:25:00,50.4,44.1,29.81,WNW,292,2.7,-999.0,79,-99.99,,,0.00,Acu-Link.com,2013-10-19 09:25:00,
2013-10-19 05:40:00,50.2,43.6,29.81,West,270,2.7,-999.0,78,-99.99,,,0.00,Acu-Link.com,2013-10-19 09:40:00,
2013-10-19 05:56:00,50.4,43.1,29.80,SW,225,5.8,-999.0,76,-99.99,,,0.00,Acu-Link.com,2013-10-19 09:56:00,
2013-10-19 06:11:00,49.5,43.3,29.80,East,90,2.7,-999.0,79,-99.99,,,0.00,Acu-Link.com,2013-10-19 10:11:00,
2013-10-19 06:26:00,48.7,43.5,29.81,ENE,67,2.2,-999.0,82,-99.99,,,0.00,Acu-Link.com,2013-10-19 10:26:00,
2013-10-19 06:41:00,48.2,43.3,29.80,SSE,157,3.2,-999.0,83,-99.99,,,0.00,Acu-Link.com,2013-10-19 10:41:00,
2013-10-19 06:56:00,47.1,43.4,29.80,NNE,22,0.0,-999.0,87,-99.99,,,0.00,Acu-Link.com,2013-10-19 10:56:00,
2013-10-19 07:11:00,46.6,42.9,29.80,West,270,0.0,-999.0,87,-99.99,,,0.00,Acu-Link.com,2013-10-19 11:11:00,
2013-10-19 07:26:00,46.8,43.1,29.80,SE,135,1.7,-999.0,87,-99.99,,,0.00,Acu-Link.com,2013-10-19 11:26:00,
2013-10-19 07:41:00,46.9,43.2,29.80,West,270,0.0,-999.0,87,-99.99,,,0.00,Acu-Link.com,2013-10-19 11:41:00,
2013-10-19 07:56:00,46.9,43.5,29.81,SE,135,0.0,-999.0,88,-99.99,,,0.00,Acu-Link.com,2013-10-19 11:56:00,
2013-10-19 08:13:00,48.6,44.0,29.80,ENE,67,1.7,-999.0,84,-99.99,,,0.00,Acu-Link.com,2013-10-19 12:13:00,
2013-10-19 08:29:00,49.3,44.4,29.81,NE,45,2.7,-999.0,83,-99.99,,,0.00,Acu-Link.com,2013-10-19 12:29:00,
2013-10-19 08:44:00,50.2,44.3,29.81,SW,225,3.2,-999.0,80,-99.99,,,0.00,Acu-Link.com,2013-10-19 12:44:00,
2013-10-19 08:59:00,54.3,45.8,29.80,SSW,202,3.2,-999.0,73,-99.99,,,0.00,Acu-Link.com,2013-10-19 12:59:00,
2013-10-19 09:14:00,53.2,45.5,29.80,NW,315,2.7,-999.0,75,-99.99,,,0.00,Acu-Link.com,2013-10-19 13:14:00,
2013-10-19 09:29:00,53.8,46.1,29.80,ENE,67,1.1,-999.0,75,-99.99,,,0.00,Acu-Link.com,2013-10-19 13:29:00,
2013-10-19 09:45:00,55.9,47.0,29.80,East,90,1.7,-999.0,72,-99.99,,,0.00,Acu-Link.com,2013-10-19 13:45:00,
2013-10-19 10:01:00,57.2,47.1,29.79,ESE,112,3.2,-999.0,69,-99.99,,,0.00,Acu-Link.com,2013-10-19 14:01:00,
2013-10-19 10:16:00,58.5,49.1,29.78,West,270,1.7,-999.0,71,-99.99,,,0.00,Acu-Link.com,2013-10-19 14:16:00,
2013-10-19 10:31:00,59.7,47.1,29.77,SE,135,1.7,-999.0,63,-99.99,,,0.00,Acu-Link.com,2013-10-19 14:31:00,
2013-10-19 10:46:00,59.2,47.8,29.77,East,90,5.3,-999.0,66,-99.99,,,0.00,Acu-Link.com,2013-10-19 14:46:00,
2013-10-19 11:02:00,58.3,48.2,29.77,ENE,67,2.2,-999.0,69,-99.99,,,0.00,Acu-Link.com,2013-10-19 15:02:00,
2013-10-19 11:17:00,59.2,48.6,29.76,ENE,67,4.2,-999.0,68,-99.99,,,0.00,Acu-Link.com,2013-10-19 15:17:00,
2013-10-19 11:32:00,59.7,47.9,29.76,SSE,157,3.2,-999.0,65,-99.99,,,0.00,Acu-Link.com,2013-10-19 15:32:00,
2013-10-19 11:47:00,61.5,50.0,29.76,East,90,2.7,-999.0,66,-99.99,,,0.00,Acu-Link.com,2013-10-19 15:47:00,
2013-10-19 12:02:00,61.3,48.2,29.76,SSE,157,3.2,-999.0,62,-99.99,,,0.00,Acu-Link.com,2013-10-19 16:02:00,
2013-10-19 12:18:00,61.0,47.5,29.75,WSW,247,2.2,-999.0,61,-99.99,,,0.00,Acu-Link.com,2013-10-19 16:18:00,
2013-10-19 12:33:00,60.3,46.8,29.73,SW,225,3.7,-999.0,61,-99.99,,,0.00,Acu-Link.com,2013-10-19 16:33:00,
2013-10-19 12:48:00,60.1,44.4,29.72,SSE,157,2.7,-999.0,56,-99.99,,,0.00,Acu-Link.com,2013-10-19 16:48:00,
2013-10-19 13:03:00,60.8,44.5,29.70,WNW,292,5.3,-999.0,55,-99.99,,,0.00,Acu-Link.com,2013-10-19 17:03:00,
2013-10-19 13:18:00,60.8,44.5,29.70,West,270,4.7,-999.0,55,-99.99,,,0.00,Acu-Link.com,2013-10-19 17:18:00,
2013-10-19 13:33:00,60.8,44.5,29.70,SW,225,5.8,-999.0,55,-99.99,,,0.00,Acu-Link.com,2013-10-19 17:33:00,
2013-10-19 13:48:00,61.0,44.7,29.70,SSW,202,3.7,-999.0,55,-99.99,,,0.00,Acu-Link.com,2013-10-19 17:48:00,
2013-10-19 14:03:00,61.3,45.5,29.68,WSW,247,4.2,-999.0,56,-99.99,,,0.00,Acu-Link.com,2013-10-19 18:03:00,
2013-10-19 14:18:00,62.2,45.8,29.68,SSW,202,1.7,-999.0,55,-99.99,,,0.00,Acu-Link.com,2013-10-19 18:18:00,
2013-10-19 14:34:00,63.0,47.1,29.65,West,270,2.7,-999.0,56,-99.99,,,0.00,Acu-Link.com,2013-10-19 18:34:00,
2013-10-19 14:49:00,63.1,46.2,29.64,ESE,112,2.2,-999.0,54,-99.99,,,0.00,Acu-Link.com,2013-10-19 18:49:00,
2013-10-19 15:04:00,63.5,47.0,29.64,East,90,4.2,-999.0,55,-99.99,,,0.00,Acu-Link.com,2013-10-19 19:04:00,
2013-10-19 15:19:00,62.4,46.0,29.63,ESE,112,6.3,-999.0,55,-99.99,,,0.00,Acu-Link.com,2013-10-19 19:19:00,
2013-10-19 15:34:00,61.5,45.7,29.63,ESE,112,4.7,-999.0,56,-99.99,,,0.00,Acu-Link.com,2013-10-19 19:34:00,
2013-10-19 15:49:00,61.7,45.4,29.62,WSW,247,3.2,-999.0,55,-99.99,,,0.00,Acu-Link.com,2013-10-19 19:49:00,
2013-10-19 16:04:00,61.5,46.1,29.61,NNE,22,3.7,-999.0,57,-99.99,,,0.00,Acu-Link.com,2013-10-19 20:04:00,
2013-10-19 16:19:00,61.3,46.4,29.61,SW,225,5.3,-999.0,58,-99.99,,,0.00,Acu-Link.com,2013-10-19 20:19:00,
2013-10-19 16:34:00,61.7,46.8,29.60,ESE,112,2.7,-999.0,58,-99.99,,,0.00,Acu-Link.com,2013-10-19 20:34:00,
2013-10-19 16:50:00,60.8,45.9,29.59,South,180,4.7,-999.0,58,-99.99,,,0.00,Acu-Link.com,2013-10-19 20:50:00,
2013-10-19 17:05:00,59.7,46.7,29.59,South,180,8.9,-999.0,62,-99.99,,,0.00,Acu-Link.com,2013-10-19 21:05:00,
2013-10-19 17:20:00,58.5,47.2,29.59,NNE,22,10.9,-999.0,66,-99.99,,,0.00,Acu-Link.com,2013-10-19 21:20:00,
2013-10-19 17:35:00,57.4,49.2,29.58,West,270,3.7,-999.0,74,-99.99,,,0.00,Acu-Link.com,2013-10-19 21:35:00,
2013-10-19 17:50:00,56.3,49.9,29.59,NNE,22,2.2,-999.0,79,-99.99,,,0.00,Acu-Link.com,2013-10-19 21:50:00,
2013-10-19 18:05:00,55.6,49.5,29.59,NNE,22,5.8,-999.0,80,-99.99,,,0.00,Acu-Link.com,2013-10-19 22:05:00,
2013-10-19 18:20:00,52.9,50.3,29.60,South,180,9.4,-999.0,91,-99.99,,,0.01,Acu-Link.com,2013-10-19 22:20:00,
2013-10-19 18:35:00,51.6,50.2,29.59,WSW,247,5.3,-999.0,95,-99.99,,,0.09,Acu-Link.com,2013-10-19 22:35:00,
2013-10-19 18:50:00,51.1,49.4,29.59,SW,225,4.7,-999.0,94,-99.99,,,0.09,Acu-Link.com,2013-10-19 22:50:00,
2013-10-19 19:05:00,50.5,48.3,29.59,SW,225,5.8,-999.0,92,-99.99,,,0.09,Acu-Link.com,2013-10-19 23:05:00,
2013-10-19 19:21:00,50.4,47.9,29.59,SSW,202,5.3,-999.0,91,-99.99,,,0.09,Acu-Link.com,2013-10-19 23:21:00,
2013-10-19 19:36:00,50.0,48.3,29.59,SW,225,3.7,-999.0,94,-99.99,,,0.09,Acu-Link.com,2013-10-19 23:36:00,
2013-10-19 19:51:00,49.8,48.4,29.59,SSW,202,4.2,-999.0,95,-99.99,,,0.11,Acu-Link.com,2013-10-19 23:51:00,
2013-10-19 20:06:00,49.6,48.5,29.58,West,270,1.7,-999.0,96,-99.99,,,0.11,Acu-Link.com,2013-10-20 00:06:00,
2013-10-19 20:21:00,49.3,48.8,29.58,ESE,112,0.0,-999.0,98,-99.99,,,0.11,Acu-Link.com,2013-10-20 00:21:00,
2013-10-19 20:36:00,49.1,48.8,29.59,NNW,337,0.0,-999.0,99,-99.99,,,0.11,Acu-Link.com,2013-10-20 00:36:00,
2013-10-19 20:51:00,49.1,48.8,29.59,SE,135,0.0,-999.0,99,-99.99,,,0.11,Acu-Link.com,2013-10-20 00:51:00,
2013-10-19 21:06:00,49.1,48.6,29.59,SSE,157,3.2,-999.0,98,-99.99,,,0.11,Acu-Link.com,2013-10-20 01:06:00,
2013-10-19 21:22:00,50.0,47.8,29.60,SW,225,8.3,-999.0,92,-99.99,,,0.11,Acu-Link.com,2013-10-20 01:22:00,
2013-10-19 21:37:00,50.9,47.8,29.62,South,180,7.8,-999.0,89,-99.99,,,0.11,Acu-Link.com,2013-10-20 01:37:00,
2013-10-19 21:52:00,47.8,45.0,29.63,SW,225,6.8,-999.0,90,-99.99,,,0.11,Acu-Link.com,2013-10-20 01:52:00,
2013-10-19 22:07:00,46.9,43.8,29.64,SW,225,6.3,-999.0,89,-99.99,,,0.11,Acu-Link.com,2013-10-20 02:07:00,
2013-10-19 22:22:00,46.4,43.6,29.65,WSW,247,6.3,-999.0,90,-99.99,,,0.11,Acu-Link.com,2013-10-20 02:22:00,
2013-10-19 22:37:00,46.2,43.4,29.66,West,270,6.8,-999.0,90,-99.99,,,0.11,Acu-Link.com,2013-10-20 02:37:00,
2013-10-19 22:52:00,45.9,42.8,29.66,WSW,247,4.7,-999.0,89,-99.99,,,0.11,Acu-Link.com,2013-10-20 02:52:00,
2013-10-19 23:07:00,45.1,42.6,29.67,WNW,292,5.3,-999.0,91,-99.99,,,0.11,Acu-Link.com,2013-10-20 03:07:00,
2013-10-19 23:22:00,44.8,42.3,29.67,WSW,247,3.7,-999.0,91,-99.99,,,0.11,Acu-Link.com,2013-10-20 03:22:00,
2013-10-19 23:38:00,45.1,42.1,29.68,WSW,247,4.2,-999.0,89,-99.99,,,0.11,Acu-Link.com,2013-10-20 03:38:00,
2013-10-19 23:53:00,44.6,42.1,29.68,West,270,3.2,-999.0,91,-99.99,,,0.11,Acu-Link.com,2013-10-20 03:53:00,